Simultaneous Nadir Overpasses (SNOs) Predictions

Prediction of SNOs between GOES-15 and FY3D Satellite Orbit:

Table of predicted SNOs for the next 14.0 days since TLE Epoch: 9/26/2020
Index Date Time (GOES-15) GOES-15 Lat,Lon FY3D Lat,Lon Distance(km) Time Diff (sec)
1 09/26/2020 22:08:50 0.13,-128.36 -0.03,-128.92 64.23 80
2 09/27/2020 21:47:15 0.13,-128.37 1.06,-124.35 458.84 80
3 09/29/2020 10:08:44 -0.13,-128.43 0.10,-129.54 126.55 80
4 09/30/2020 09:52:28 -0.13,-128.44 -0.93,-124.96 396.68 80
5 10/01/2020 22:14:06 0.13,-128.41 -0.25,-130.19 201.80 80
6 10/02/2020 21:52:29 0.13,-128.42 0.77,-125.60 320.99 80
7 10/04/2020 10:13:59 -0.13,-128.47 0.38,-130.79 265.26 80
8 10/05/2020 09:57:42 -0.13,-128.47 -0.65,-126.21 257.40 80
9 10/06/2020 22:19:20 0.13,-128.44 -0.53,-131.44 341.77 80
10 10/07/2020 21:57:44 0.14,-128.44 0.50,-126.86 180.11 80
11 10/09/2020 10:19:13 -0.13,-128.47 0.65,-132.05 407.93 80
